{"data":{"norad_id":56966,"intl_designator":"2023-084AL","name":"NUSAT-42 (M WONENBURGER)","alt_names":[],"object_type":"PAYLOAD","status":"ACTIVE","operator":null,"country":"ARGN","launch_date":"2023-06-12","launch_site_code":"AFWTR","launch_vehicle":null,"mission":null,"orbit_class":"UNKNOWN","rcs_meters":null,"size_class":null,"mass_kg":null,"dimensions":null,"purposes":[],"wikipedia_slug":null,"has_3d_model":false,"image_url":null,"decayed_at":null,"tle_current":{"epoch":"2026-09-21T23:30:35.720640Z","epoch_age_seconds":72076,"freshness":"FRESH","line1":"1 56966U 23084AL  26264.97958010  .00018467  00000+0  34117-3 0  9992","line2":"2 56966  97.5831  53.5766 0004323 257.5079 102.5688 15.49124992183048","mean_motion":15.49124992,"eccentricity":0.0004323,"inclination_deg":97.5831,"raan_deg":53.5766,"arg_perigee_deg":257.5079,"mean_anomaly_deg":102.5688,"bstar":0.00034117,"rev_number":18304,"period_min":92.95570127888,"perigee_km":416.34597742586,"apogee_km":422.22302805713,"semimajor_km":6797.4215027415,"source":"CELESTRAK","updated_at":"2026-09-22T09:00:25.996219Z"}}}